Погода в Сан-Лоренсу

Бразилия     22°07′01″S   45°03′06″W
темп.,
°C
ветер,
м/с
пор.,
м/с
влажн.,
%
обл.,
%
осадки,
мм/ч
давл.,
гПа
погр.,
м
27 февраля, сб
сб2700:00+17всв1194100 0.0 101629
03:00+17всв1195100 0.1 101467
06:00+17всв1398100 3.6 1015168
09:00+19св1593100 5.9 1016469
12:00+19св2593100 1.9 1016381
15:00+19юв1394100 5.8 1014245
18:00+17ююв1297100 1.9 101446
21:00+17ююв1194100 1.9 101523
28 февраля, вс
вс2800:00+16в1295100 0.0 101649
03:00+15ююв1194100 0.0 101423
06:00+14ю119463 0.0 101523
09:00+20ссз128669 0.6 1016306
12:00+23св4780100 3.9 1015762
15:00+24св357596 7.1 10121126
18:00+21в128679 1.9 101226
21:00+17вюв129273 1.9 101523
1 марта, пн
пн100:00+15вюв119313 0.0 101523
03:00+15всв019510 0.0 101423
06:00+14в019623 0.0 101523
09:00+20св238846 0.0 1015470
12:00+24с237086 0.4 10141066
15:00+26с236372 1.6 10121359
18:00+22св238274 0.3 101269
21:00+18всв129273 0.3 101423
2 марта, вт
вт200:00+17всв119491 0.0 101523
03:00+16всв119694 0.0 101424
06:00+16юв119693 0.0 101623
09:00+21с128094 0.0 1017568
12:00+23ссз2375100 0.1 1016864
15:00+25ссз236698 0.2 10131212
18:00+22ю118058 0.4 101323
21:00+18вюв119051 0.6 101623
3 марта, ср
ср300:00+16св129477 0.1 101727
03:00+15вюв119489 0.1 101623
06:00+15ююв019464 0.0 101723
09:00+21зсз018376 0.0 1018341
12:00+25сз346870 0.3 10171177
15:00+26сз236442 0.8 10141329
18:00+21ю128559 1.9 101423
21:00+18вюв119160 3.1 101723